Regional Weather Roundup
Issued by NWS

Home | Current Version | Previous Version | Text Only | Print | Product List | Glossary On
Versions: 1 2 3 4 5 6 7 8 9 10 11 12 13 14 15 16 17 18 19 20 21 22 23 24 25 26 27 28 29 30 31 32 33 34 35 36 37 38 39 40 41 42 43 44 45 46 47 48 49 50
000
ASUS45 KBOI 271510
RWRID
WEATHER ROUNDUP FOR IDAHO
NATIONAL WEATHER SERVICE BOISE ID
800 AM MST FRI FEB 27 2015

NOTE: "FAIR" INDICATES FEW OR NO CLOUDS BELOW 12000 FEET
WITH NO SIGNIFICANT WEATHER AND/OR OBSTRUCTIONS TO VISIBILITY

IDZ012-014-271600-
SOUTHWEST IDAHO


CITY           SKY/WX    TMP DP  RH WIND       PRES   REMARKS
BOISE          CLOUDY    38  31  76 SE10      29.78S WCI  31
CALDWELL       CLOUDY    36  27  69 E6        29.80S WCI  31
MOUNTAIN HOME  CLOUDY    35  31  85 SE10      29.79S WCI  27
$$

IDZ016-017-271600-
SOUTHCENTRAL IDAHO


CITY           SKY/WX    TMP DP  RH WIND       PRES   REMARKS
BURLEY         MOCLDY    32  29  88 CALM      29.78S
JEROME         CLOUDY    31  28  89 NE10      29.79S WCI  22
TWIN FALLS     CLOUDY    33  28  81 NW3       29.78F
$$

IDZ019>023-271600-
SOUTHEAST IDAHO


CITY           SKY/WX    TMP DP  RH WIND       PRES   REMARKS
IDAHO FALLS    FLURRIES  27  15  61 N10       29.81S WCI  17
POCATELLO      MIX PCPN  30  26  85 N8        29.80S WCI  22
REXBURG        FLURRIES  22  13  68 NE8       29.82S WCI  12
$$

IDZ006-010-011-018-031-032-271600-
CENTRAL IDAHO MOUNTAINS


CITY           SKY/WX    TMP DP  RH WIND       PRES   REMARKS
MCCALL         MOCLDY    22  20  92 NE3       29.72F
HAILEY         CLOUDY    28  27  93 SE5       29.79S WCI  23
STANLEY          N/A     18  14  84 CALM      29.73F
SALMON         CLOUDY    28  18  64 CALM      29.82S
CHALLIS        CLOUDY    28  23  81 NW5       29.77S WCI  23
$$

IDZ002-004-006-007-026-271600-
NORTHERN IDAHO


CITY           SKY/WX    TMP DP  RH WIND       PRES   REMARKS
LEWISTON       PTCLDY    34  33  96 CALM      29.80F
LOWELL           N/A     33  30  88 CALM      29.86F
COEUR D`ALENE  CLEAR     28  25  86 NE13      29.82S WCI  18
MULLAN PASS    CLOUDY    17  15  92 SE10G18   29.72R WCI   5
$$


USA.gov is the U.S. government's official web portal to all federal, state and local government web resources and services.